Marvel — V7OZ3 — position and weather

sailwx.info

Track history (hours):
 
Tides and Currents Weather Stations Pressure Air Temp Water Temp Dewpoint Dewpoint Depression Visibility Wind Speed Wind Dir Waves Ship Positions

Marvel

Last reported at 2017-May-29 12:25 UTC. Time now 2017-Jun-23 00:10 UTC.
Position N 00°42' W 050°16'.
Warning: this ship's position is 24 days out of date.

Length 182 m; draft 7 m.

Type: Tanker. MMSI: 538003191.

Date/timePositionNaut miles runAvg speedWind from/ knotsBaromVisibWave heightAir tempDewpointWater temp
2017-May-29 12:25N 00°42' W 050°16'717.6
2017-May-29 12:00N 00°40' W 050°22'2415.9
2017-May-29 10:29N 00°18' W 050°34'714.7
2017-May-29 10:00N 00°15' W 050°40'714.1
2017-May-29 09:31N 00°11' W 050°46'713.0
2017-May-29 09:00N 00°10' W 050°52'612.4
2017-May-29 08:30N 00°07' W 050°58'612.3
2017-May-29 08:00N 00°02' W 051°01'611.1
2017-May-29 07:30S 00°03' W 051°04'4 8.6
2017-May-29 07:00S 00°05' W 051°07'613.1
2017-May-29 06:30S 00°09' W 051°13'713.1
2017-May-29 06:00S 00°13' W 051°18'54314.2
2017-May-27 15:47S 03°07' W 059°53'413.7
2017-May-27 15:29S 03°09' W 059°56'  
2017-May-25 02:00S 03°09' W 059°57'0 0.0
2017-May-25 01:29S 03°09' W 059°57'0 0.0
2017-May-25 01:00S 03°09' W 059°57'0 0.0
2017-May-25 00:30S 03°09' W 059°57'0 0.0
2017-May-25 00:00S 03°09' W 059°57'0 0.0
2017-May-24 23:30S 03°09' W 059°57'0 0.0
2017-May-24 23:00S 03°09' W 059°57'0 0.6
2017-May-24 22:30S 03°09' W 059°57'2 4.6
2017-May-24 22:00S 03°08' W 059°55'  
2017-May-21 14:01S 00°13' W 051°03'612.6
2017-May-21 13:30S 00°07' W 051°01'612.1
2017-May-21 13:00S 00°01' W 051°01'3 6.1
2017-May-21 12:30S 00°02' W 051°03'3 5.9
2017-May-21 12:00S 00°04' W 051°06'1 1.7
2017-May-21 11:30S 00°03' W 051°05'3 5.3
2017-May-21 11:00S 00°01' W 051°03'4 7.9
2017-May-21 10:30N 00°02' W 051°01'5 9.9
2017-May-21 10:00N 00°06' W 050°58'510.0
2017-May-21 09:30N 00°09' W 050°54'8 9.6
2017-May-21 08:42N 00°11' W 050°47'2 9.2
2017-May-21 08:30N 00°11' W 050°45'  
Track history (hours):
 
Tides and Currents Weather Stations Pressure Air Temp Water Temp Dewpoint Dewpoint Depression Visibility Wind Speed Wind Dir Waves Ship Positions

Marvel

Last reported at 2017-May-29 12:25 UTC. Time now 2017-Jun-23 00:10 UTC.
Position N 00°42' W 050°16'.
Warning: this ship's position is 24 days out of date.

Length 182 m; draft 7 m.

Type: Tanker. MMSI: 538003191.

Date/timePositionNaut miles runAvg speedWind from/ knotsBaromVisibWave heightAir tempDewpointWater temp
2017-May-29 12:25N 00°42' W 050°16'717.6
2017-May-29 12:00N 00°40' W 050°22'2415.9
2017-May-29 10:29N 00°18' W 050°34'714.7
2017-May-29 10:00N 00°15' W 050°40'714.1
2017-May-29 09:31N 00°11' W 050°46'713.0
2017-May-29 09:00N 00°10' W 050°52'612.4
2017-May-29 08:30N 00°07' W 050°58'612.3
2017-May-29 08:00N 00°02' W 051°01'611.1
2017-May-29 07:30S 00°03' W 051°04'4 8.6
2017-May-29 07:00S 00°05' W 051°07'613.1
2017-May-29 06:30S 00°09' W 051°13'713.1
2017-May-29 06:00S 00°13' W 051°18'54314.2
2017-May-27 15:47S 03°07' W 059°53'413.7
2017-May-27 15:29S 03°09' W 059°56'  
2017-May-25 02:00S 03°09' W 059°57'0 0.0
2017-May-25 01:29S 03°09' W 059°57'0 0.0
2017-May-25 01:00S 03°09' W 059°57'0 0.0
2017-May-25 00:30S 03°09' W 059°57'0 0.0
2017-May-25 00:00S 03°09' W 059°57'0 0.0
2017-May-24 23:30S 03°09' W 059°57'0 0.0
2017-May-24 23:00S 03°09' W 059°57'0 0.6
2017-May-24 22:30S 03°09' W 059°57'2 4.6
2017-May-24 22:00S 03°08' W 059°55'  
2017-May-21 14:01S 00°13' W 051°03'612.6
2017-May-21 13:30S 00°07' W 051°01'612.1
2017-May-21 13:00S 00°01' W 051°01'3 6.1
2017-May-21 12:30S 00°02' W 051°03'3 5.9
2017-May-21 12:00S 00°04' W 051°06'1 1.7
2017-May-21 11:30S 00°03' W 051°05'3 5.3
2017-May-21 11:00S 00°01' W 051°03'4 7.9
2017-May-21 10:30N 00°02' W 051°01'5 9.9
2017-May-21 10:00N 00°06' W 050°58'510.0
2017-May-21 09:30N 00°09' W 050°54'8 9.6
2017-May-21 08:42N 00°11' W 050°47'2 9.2
2017-May-21 08:30N 00°11' W 050°45'  

Dump ship's entire track history